Location: Bern
(46.9167°N, 7.4667°E)
Time: 05:16:20
(UTC+02:00)

X-37B - Visible Passes

Search period start: 21 October 2021 00:00
Search period end: 31 October 2021 00:00
Orbit: 385 x 389 km, 45.0° (Epoch: 17 October)

Date Brightness Start Highest point End Pass type
(mag) Time Alt. Az. Time Alt. Az. Time Alt. Az.
21 Oct 0.8 19:28:23 10° W 19:31:32 62° S 19:33:45 18° ESE visible
21 Oct 3.4 21:05:01 10° W 21:06:02 18° WSW 21:06:02 18° WSW visible
22 Oct 1.2 20:06:37 10° W 20:09:41 47° SSW 20:10:16 41° SSE visible
23 Oct 1.0 19:08:14 10° W 19:11:23 58° S 19:14:31 10° ESE visible
23 Oct 2.8 20:45:02 10° W 20:46:50 22° SW 20:46:50 22° SW visible
24 Oct 1.8 19:46:32 10° W 19:49:29 35° SSW 19:51:11 20° SE visible
25 Oct 3.0 20:25:18 10° WSW 20:27:23 16° SSW 20:27:55 16° SSW visible
26 Oct 2.6 19:26:34 10° W 19:29:13 24° SSW 19:31:52 10° SSE visible
28 Oct 3.4 19:06:50 10° WSW 19:08:54 16° SSW 19:10:59 10° S visible
